period_start,C,m1,H,J0,J1,J2,J3,J4,J5,JA,JB,JC,JD,JJ,JK,JN,#
2018-09-06 00:02:24,5.56,3.13,1.93,20.32,23.98,27.07,13.91,50.40,1000.77,2038.07,2459.62,2227.84,2571.33,599.83,591.94,37.80,0000 0000 0000 0000 000000
2018-09-06 00:07:26,2.39,3.31,2.00,20.33,23.98,27.07,13.97,50.33,1000.98,2038.42,2462.87,2270.56,2600.57,600.12,592.29,37.85,0000 0000 0000 0000 000000
2018-09-06 00:12:27,2.52,3.38,2.00,20.32,23.99,27.07,13.97,50.28,1001.00,2038.11,2426.37,2229.46,2550.42,599.83,591.96,37.90,0000 0000 0000 0000 000000
2018-09-06 00:17:28,-0.37,3.43,2.00,20.33,23.99,27.05,13.89,50.30,1001.14,2038.13,2430.63,2236.44,2556.72,599.73,592.04,37.95,0000 0000 0000 0000 000000
2018-09-06 00:22:29,-4.33,3.23,2.00,20.35,24.00,27.05,13.96,50.22,1001.44,2038.92,2518.32,2363.87,2690.76,600.23,592.66,38.00,0000 0000 0000 0000 000000
2018-09-06 00:27:31,-0.34,3.18,2.00,20.37,24.00,27.05,13.90,50.19,1001.48,2038.90,2516.90,2358.78,2688.51,599.68,592.09,38.05,0000 0000 0000 0000 000000
2018-09-06 00:32:32,3.90,3.33,1.00,20.37,24.00,27.05,13.89,50.23,1001.47,2038.09,2439.00,2228.58,2562.56,599.66,592.13,38.10,0000 0000 0000 0000 000000
2018-09-06 00:37:33,0.58,3.40,1.00,20.37,24.00,27.03,13.92,50.41,1001.47,2038.02,2429.24,2215.28,2549.18,600.05,592.61,38.16,0000 0000 0000 0000 000000
2018-09-06 00:42:35,1.96,3.49,1.00,20.39,24.02,27.07,13.89,50.58,1001.44,2038.01,2388.90,2206.27,2529.93,599.96,592.32,38.21,0000 0000 0000 0000 000000
2018-09-06 00:47:36,-0.81,3.49,1.00,20.40,24.02,27.04,13.87,50.52,1001.48,2038.00,2391.46,2216.95,2538.03,599.93,592.18,38.26,0000 0000 0000 0000 000000
2018-09-06 00:52:37,-0.56,3.46,1.00,20.42,24.02,27.04,13.90,50.48,1001.50,2038.00,2398.25,2225.24,2544.61,600.03,592.34,38.31,0000 0000 0000 0000 000000
2018-09-06 00:57:39,-0.36,3.44,1.00,20.42,24.02,26.99,13.93,50.56,1001.75,2038.00,2398.81,2227.18,2546.19,600.10,592.64,38.36,0000 0000 0000 0000 000000
2018-09-06 01:02:40,-0.06,3.43,1.00,20.44,24.04,27.00,13.98,50.44,1001.97,2037.99,2398.08,2227.96,2546.96,599.93,592.52,38.41,0000 0000 0000 0000 000000
2018-09-06 01:07:41,0.00,3.43,1.00,20.44,24.05,27.01,13.94,50.42,1001.97,2037.99,2398.09,2227.99,2546.99,599.92,592.54,38.46,0000 0000 0000 0000 000000
2018-09-06 01:12:43,-0.02,3.42,1.00,20.46,24.05,27.03,13.94,50.52,1001.98,2037.99,2398.65,2228.00,2547.02,600.18,592.73,38.51,0000 0000 0000 0000 000000
2018-09-06 01:17:44,-0.00,3.42,1.00,20.47,24.06,27.00,13.91,50.51,1001.97,2037.98,2398.92,2228.02,2547.04,599.74,592.27,38.56,0000 0000 0000 0000 000000
2018-09-06 01:22:45,0.00,3.42,1.00,20.48,24.07,27.00,13.93,50.45,1001.97,2037.99,2398.97,2228.01,2547.05,600.18,592.71,38.61,0000 0000 0000 0000 000000
2018-09-06 01:27:46,-0.01,3.42,0.93,20.49,24.07,27.03,13.85,50.43,1001.98,2037.98,2398.99,2228.03,2547.19,599.68,592.23,38.66,0000 0000 0000 0000 000000
2018-09-06 01:32:48,0.00,3.42,0.00,20.51,24.08,27.02,13.96,50.50,1002.09,2037.95,2398.99,2228.05,2547.28,599.95,592.48,38.71,0000 0000 0000 0000 000000
2018-09-06 01:37:48,-0.02,3.42,0.00,20.52,24.10,27.04,13.97,50.50,1002.36,2037.92,2399.02,2228.11,2547.61,600.08,592.69,38.76,0000 0000 0000 0000 000000
2018-09-06 01:42:50,-0.02,3.42,0.00,20.54,24.10,27.05,13.97,50.42,1002.43,2037.85,2399.06,2228.27,2547.83,600.11,592.61,38.81,0000 0000 0000 0000 000000
2018-09-06 01:47:51,-0.05,3.42,0.00,20.54,24.12,27.04,13.88,50.38,1002.46,2037.59,2399.29,2228.46,2547.98,599.94,592.57,38.86,0000 0000 0000 0000 000000
2018-09-06 01:52:52,-0.04,3.42,0.00,20.57,24.12,27.06,13.92,50.42,1002.46,2037.21,2399.32,2228.43,2547.97,599.90,592.54,38.91,0000 0000 0000 0000 000000
2018-09-06 01:57:53,-0.01,3.42,0.00,20.57,24.14,27.08,13.96,50.45,1002.46,2037.06,2399.41,2228.56,2547.97,599.93,592.39,38.96,0000 0000 0000 0000 000000
2018-09-06 02:02:55,-0.01,3.42,0.00,20.58,24.15,27.09,13.95,50.52,1002.47,2037.14,2399.34,2228.63,2547.97,600.07,592.64,39.01,0000 0000 0000 0000 000000
2018-09-06 02:07:56,0.01,3.42,0.00,20.59,24.15,27.08,13.89,50.52,1002.49,2037.04,2399.32,2228.28,2547.97,599.39,592.13,39.07,0000 0000 0000 0000 000000
2018-09-06 02:12:57,-0.00,3.42,0.00,20.62,24.17,27.07,13.90,50.40,1002.50,2037.00,2399.53,2228.20,2547.97,600.09,592.80,39.12,0000 0000 0000 0000 000000
2018-09-06 02:17:58,-0.01,3.42,0.00,20.64,24.17,27.10,13.94,50.43,1002.51,2037.00,2399.74,2228.29,2547.95,599.93,592.43,39.17,0000 0000 0000 0000 000000
2018-09-06 02:23:00,-0.01,3.42,0.00,20.64,24.20,27.09,13.92,50.48,1002.64,2037.00,2399.83,2228.46,2547.97,599.89,592.52,39.22,0000 0000 0000 0000 000000
2018-09-06 02:28:01,0.01,3.42,0.00,20.65,24.20,27.14,13.90,50.35,1002.85,2037.00,2399.87,2228.41,2547.95,600.01,592.69,39.27,0000 0000 0000 0000 000000
2018-09-06 02:33:03,-0.01,3.41,0.00,20.67,24.22,27.09,13.92,50.59,1002.93,2037.00,2399.96,2228.60,2547.95,600.21,592.66,39.32,0000 0000 0000 0000 000000
2018-09-06 02:38:04,-0.01,3.41,0.00,20.67,24.22,27.10,13.92,50.38,1002.94,2037.00,2399.99,2228.71,2547.91,600.16,592.84,39.37,0000 0000 0000 0000 000000
2018-09-06 02:43:05,0.02,3.41,0.00,20.69,24.24,27.13,13.91,50.40,1002.94,2036.99,2399.98,2228.68,2547.75,599.95,592.57,39.42,0000 0000 0000 0000 000000
2018-09-06 02:48:06,0.01,3.42,0.00,20.69,24.25,27.15,14.00,50.52,1002.94,2036.98,2399.99,2228.20,2547.35,600.20,592.83,39.47,0000 0000 0000 0000 000000
2018-09-06 02:53:08,-0.00,3.42,0.00,20.71,24.26,27.21,13.97,50.47,1002.95,2036.96,2399.99,2228.20,2547.19,599.96,592.63,39.52,0000 0000 0000 0000 000000
2018-09-06 02:58:09,0.00,3.42,0.00,20.73,24.27,27.17,13.96,50.57,1002.94,2036.97,2399.93,2228.27,2547.11,600.09,592.63,39.57,0000 0000 0000 0000 000000
2018-09-06 03:03:10,0.02,3.42,0.00,20.75,24.29,27.12,13.93,50.53,1002.96,2036.89,2399.63,2228.05,2547.03,600.06,592.59,39.62,0000 0000 0000 0000 000000
2018-09-06 03:08:11,-0.03,3.42,0.00,20.78,24.30,27.10,13.92,50.48,1003.02,2036.64,2399.07,2228.00,2546.99,599.91,592.45,39.67,0000 0000 0000 0000 000000
2018-09-06 03:13:12,-0.03,3.41,0.00,20.79,24.31,27.17,13.90,50.57,1003.11,2036.33,2399.07,2228.01,2546.99,599.70,592.29,39.72,0000 0000 0000 0000 000000
2018-09-06 03:18:14,-0.01,3.41,0.00,20.82,24.32,27.12,13.89,50.49,1003.29,2036.18,2399.03,2228.00,2546.99,599.90,592.60,39.77,0000 0000 0000 0000 000000
2018-09-06 03:23:15,-0.00,3.41,0.00,20.84,24.35,27.11,13.93,50.51,1003.39,2036.08,2399.05,2228.01,2546.99,600.11,592.70,39.82,0000 0000 0000 0000 000000
2018-09-06 03:28:16,-0.03,3.41,0.00,20.86,24.36,27.12,13.90,50.57,1003.43,2036.02,2399.76,2228.02,2547.00,600.05,592.50,39.87,0000 0000 0000 0000 000000
2018-09-06 03:33:18,0.01,3.41,0.00,20.87,24.37,27.15,13.91,50.45,1003.43,2036.01,2399.69,2228.01,2547.00,600.11,592.68,39.92,0000 0000 0000 0000 000000
2018-09-06 03:38:19,-0.01,3.41,0.00,20.90,24.39,27.14,13.91,50.52,1003.43,2036.00,2399.83,2228.02,2547.00,599.79,592.33,39.97,0000 0000 0000 0000 000000
2018-09-06 03:43:21,0.00,3.41,0.00,20.93,24.41,27.18,13.95,50.54,1003.53,2036.00,2399.93,2228.02,2547.00,600.11,592.65,40.03,0000 0000 0000 0000 000000
2018-09-06 03:48:22,0.00,3.41,0.00,20.94,24.42,27.16,13.92,50.46,1003.87,2036.00,2399.88,2228.05,2547.00,600.11,592.64,40.08,0000 0000 0000 0000 000000
2018-09-06 03:53:23,-0.00,3.41,0.00,20.97,24.44,27.21,13.90,50.42,1003.92,2035.99,2399.89,2228.02,2547.00,600.38,592.95,40.13,0000 0000 0000 0000 000000
2018-09-06 03:58:24,-0.00,3.41,0.00,20.98,24.46,27.20,14.00,50.54,1003.92,2035.99,2399.95,2228.05,2547.00,599.81,592.53,40.18,0000 0000 0000 0000 000000
2018-09-06 04:03:26,0.00,3.41,0.00,21.01,24.47,27.21,13.88,50.47,1003.92,2035.98,2399.95,2228.02,2547.00,599.81,592.45,40.23,0000 0000 0000 0000 000000
2018-09-06 04:08:27,-0.00,3.41,0.00,21.04,24.50,27.23,13.94,50.52,1003.92,2035.97,2399.97,2228.06,2547.01,600.05,592.62,40.28,0000 0000 0000 0000 000000
2018-09-06 04:13:28,-0.01,3.41,0.00,21.05,24.51,27.23,13.85,50.46,1003.92,2035.94,2399.99,2228.16,2547.00,599.56,591.96,40.33,0000 0000 0000 0000 000000
2018-09-06 04:18:29,-0.01,3.41,0.00,21.07,24.52,27.28,13.94,50.52,1003.92,2035.84,2399.97,2228.12,2547.00,600.02,592.36,40.38,0000 0000 0000 0000 000000
2018-09-06 04:23:31,-0.02,3.41,0.00,21.09,24.55,27.29,13.90,50.38,1003.92,2035.69,2399.98,2228.13,2547.01,599.73,592.19,40.43,0000 0000 0000 0000 000000
2018-09-06 04:28:32,-0.05,3.41,0.00,21.11,24.56,27.30,13.89,50.47,1003.92,2035.15,2399.99,2228.21,2547.00,599.75,592.17,40.48,0000 0000 0000 0000 000000
2018-09-06 04:33:33,-0.01,3.41,0.00,21.13,24.58,27.31,13.85,50.44,1003.92,2035.02,2399.99,2228.43,2547.01,599.94,592.32,40.53,0000 0000 0000 0000 000000
2018-09-06 04:38:35,-0.00,3.41,0.00,21.14,24.60,27.32,13.81,50.36,1003.96,2035.01,2399.98,2228.46,2547.01,599.75,592.09,40.58,0000 0000 0000 0000 000000
2018-09-06 04:43:36,-0.01,3.40,0.00,21.17,24.62,27.32,13.88,50.36,1004.09,2035.00,2399.99,2228.83,2547.00,600.02,592.22,40.63,0000 0000 0000 0000 000000
2018-09-06 04:48:37,-0.01,3.40,0.00,21.18,24.63,27.36,13.91,50.49,1004.39,2035.00,2400.00,2228.97,2547.15,599.76,592.21,40.68,0000 0000 0000 0000 000000
2018-09-06 04:53:38,-0.01,3.40,0.00,21.22,24.65,27.43,13.86,50.42,1004.41,2034.99,2400.03,2228.99,2547.64,599.72,592.12,40.73,0000 0000 0000 0000 000000
2018-09-06 04:58:39,-0.00,3.40,0.00,21.22,24.67,27.46,13.82,50.49,1004.41,2034.98,2400.05,2228.99,2547.67,600.02,592.52,40.78,0000 0000 0000 0000 000000
2018-09-06 05:03:41,-0.01,3.40,0.00,21.24,24.69,27.46,13.88,50.49,1004.41,2034.95,2400.09,2228.99,2547.64,600.13,592.52,40.83,0000 0000 0000 0000 000000
2018-09-06 05:08:42,-0.02,3.40,0.00,21.26,24.71,27.45,13.94,50.56,1004.41,2034.77,2400.09,2228.99,2547.66,600.11,592.45,40.88,0000 0000 0000 0000 000000
2018-09-06 05:13:44,-0.05,3.40,0.00,21.28,24.72,27.48,13.90,50.57,1004.42,2034.25,2400.12,2228.99,2547.52,599.67,591.95,40.94,0000 0000 0000 0000 000000
2018-09-06 05:18:45,-0.03,3.40,0.00,21.29,24.75,27.53,14.03,50.55,1004.48,2034.07,2400.74,2229.00,2547.88,600.32,592.70,40.99,0000 0000 0000 0000 000000
2018-09-06 05:23:46,-0.00,3.40,0.00,21.29,24.76,27.56,13.90,50.41,1004.77,2034.01,2400.89,2229.00,2547.91,599.83,592.21,41.04,0000 0000 0000 0000 000000
2018-09-06 05:28:47,-0.00,3.40,0.00,21.32,24.77,27.56,13.94,50.45,1004.87,2034.01,2400.94,2229.03,2547.96,600.08,592.64,41.09,0000 0000 0000 0000 000000
2018-09-06 05:33:48,-0.00,3.40,0.00,21.32,24.79,27.57,13.94,50.32,1004.89,2034.00,2400.98,2229.01,2547.96,599.96,592.56,41.14,0000 0000 0000 0000 000000
2018-09-06 05:38:50,0.00,3.40,0.00,21.33,24.80,27.59,14.02,50.34,1004.89,2034.00,2400.98,2229.04,2547.96,600.09,592.72,41.19,0000 0000 0000 0000 000000
2018-09-06 05:43:51,-0.00,3.40,0.00,21.34,24.82,27.57,13.86,50.38,1004.90,2034.00,2401.00,2229.15,2547.99,599.84,592.35,41.24,0000 0000 0000 0000 000000
2018-09-06 05:48:53,-0.03,3.39,0.00,21.37,24.83,27.59,13.94,50.30,1004.90,2033.99,2401.04,2229.72,2547.99,599.90,592.29,41.29,0000 0000 0000 0000 000000
2018-09-06 05:53:54,-0.00,3.39,0.00,21.37,24.85,27.65,13.94,50.29,1004.92,2033.99,2401.02,2229.91,2547.99,600.07,592.49,41.34,0000 0000 0000 0000 000000
2018-09-06 05:58:55,-0.02,3.39,0.00,21.39,24.86,27.66,13.85,50.27,1005.04,2033.99,2401.55,2229.97,2548.01,600.09,592.54,41.39,0000 0000 0000 0000 000000
2018-09-06 06:03:56,-0.01,3.39,0.00,21.40,24.87,27.68,13.96,50.21,1005.35,2033.98,2401.96,2229.99,2548.14,600.32,592.87,41.44,0000 0000 0000 0000 000000
2018-09-06 06:08:58,-0.03,3.39,0.00,21.42,24.90,27.71,13.85,50.20,1005.39,2033.89,2401.99,2229.99,2548.82,599.83,592.42,41.49,0000 0000 0000 0000 000000
2018-09-06 06:13:59,-0.06,3.39,0.00,21.42,24.91,27.73,13.90,50.27,1005.39,2033.51,2402.02,2230.06,2548.97,599.75,592.37,41.54,0000 0000 0000 0000 000000
2018-09-06 06:19:00,-0.06,3.38,0.00,21.44,24.92,27.74,13.89,50.27,1005.39,2033.06,2402.13,2230.78,2548.99,599.92,592.55,41.59,0000 0000 0000 0000 000000
2018-09-06 06:24:01,-0.01,3.38,0.00,21.44,24.93,27.72,13.93,50.23,1005.39,2033.03,2402.37,2230.99,2549.01,600.25,592.79,41.64,0000 0000 0000 0000 000000
2018-09-06 06:29:03,-0.04,3.38,0.00,21.46,24.95,27.77,13.90,50.25,1005.40,2033.00,2402.72,2231.00,2549.47,599.75,592.24,41.69,0000 0000 0000 0000 000000
2018-09-06 06:34:04,-0.00,3.38,0.00,21.46,24.96,27.76,13.97,50.17,1005.45,2033.01,2402.95,2231.02,2549.95,600.20,592.76,41.74,0000 0000 0000 0000 000000
2018-09-06 06:39:06,-0.00,3.38,0.00,21.46,24.97,27.78,13.88,50.29,1005.64,2033.00,2402.97,2231.11,2549.99,599.81,592.49,41.79,0000 0000 0000 0000 000000
2018-09-06 06:44:07,-0.02,3.38,0.00,21.47,24.97,27.80,13.93,50.34,1005.81,2033.00,2402.99,2231.55,2549.99,599.96,592.64,41.84,0000 0000 0000 0000 000000
2018-09-06 06:49:08,0.00,3.38,0.00,21.48,24.99,27.87,13.90,50.20,1005.86,2033.00,2402.99,2231.68,2550.00,599.83,592.60,41.90,0000 0000 0000 0000 000000
2018-09-06 06:54:09,0.00,3.38,0.00,21.48,25.00,27.90,13.89,50.23,1005.87,2033.00,2402.99,2231.66,2550.01,600.08,592.79,41.95,0000 0000 0000 0000 000000
2018-09-06 06:59:11,0.00,3.38,0.00,21.49,25.01,27.94,13.90,50.26,1005.87,2032.99,2402.99,2231.52,2550.00,600.06,592.80,42.00,0000 0000 0000 0000 000000
2018-09-06 07:04:12,0.00,3.38,0.00,21.49,25.02,27.92,13.97,50.29,1005.87,2032.99,2402.99,2231.53,2550.00,600.15,592.84,42.05,0000 0000 0000 0000 000000
2018-09-06 07:09:13,0.01,3.38,0.00,21.49,25.02,27.97,13.88,50.10,1005.90,2032.99,2402.97,2231.38,2550.00,600.13,592.83,42.10,0000 0000 0000 0000 000000
2018-09-06 07:14:15,-0.00,3.38,0.00,21.49,25.04,27.98,14.02,50.26,1005.93,2032.98,2402.99,2231.37,2550.00,600.20,592.94,42.15,0000 0000 0000 0000 000000
2018-09-06 07:19:16,0.01,3.38,0.00,21.51,25.05,28.02,13.95,50.17,1006.10,2032.98,2402.99,2231.28,2550.00,599.84,592.68,42.20,0000 0000 0000 0000 000000
2018-09-06 07:24:17,0.00,3.38,0.00,21.52,25.05,28.00,13.89,50.23,1006.31,2032.97,2402.97,2231.14,2550.00,599.91,592.85,42.25,0000 0000 0000 0000 000000
2018-09-06 07:29:19,0.02,3.38,0.00,21.51,25.07,28.03,13.88,50.13,1006.36,2032.97,2402.72,2231.06,2549.76,599.51,592.46,42.30,0000 0000 0000 0000 000000
2018-09-06 07:34:20,0.03,3.38,0.00,21.52,25.07,28.06,13.84,50.18,1006.36,2032.91,2402.01,2230.98,2549.03,599.95,592.89,42.35,0000 0000 0000 0000 000000
2018-09-06 07:39:22,-0.02,3.38,0.00,21.52,25.08,28.03,13.93,50.06,1006.37,2032.78,2401.98,2230.96,2549.02,600.15,593.24,42.40,0000 0000 0000 0000 000000
2018-09-06 07:44:23,-0.01,3.38,0.00,21.52,25.10,28.01,13.89,50.09,1006.37,2032.61,2401.97,2230.96,2549.00,599.94,592.98,42.45,0000 0000 0000 0000 000000
2018-09-06 07:49:24,-0.02,3.38,0.00,21.52,25.10,28.06,13.94,50.23,1006.40,2032.53,2401.98,2230.97,2549.01,599.97,592.96,42.50,0000 0000 0000 0000 000000
2018-09-06 07:54:26,-0.02,3.38,0.00,21.54,25.10,28.05,13.96,50.10,1006.57,2032.34,2401.97,2230.97,2549.00,599.88,593.01,42.55,0000 0000 0000 0000 000000
2018-09-06 07:59:27,0.01,3.38,0.00,21.54,25.12,28.06,13.87,50.13,1006.78,2032.35,2401.93,2230.98,2549.00,599.94,593.02,42.60,0000 0000 0000 0000 000000
2018-09-06 08:04:28,0.01,3.38,0.00,21.57,25.12,27.94,13.92,50.08,1006.85,2032.27,2401.59,2230.86,2548.99,600.01,593.13,42.65,0000 0000 0000 0000 000000
2018-09-06 08:09:29,-0.00,3.38,0.00,21.61,25.14,27.87,13.91,50.20,1006.85,2032.20,2401.34,2230.56,2548.99,600.20,593.28,42.70,0000 0000 0000 0000 000000
2018-09-06 08:14:31,0.03,3.38,0.00,21.66,25.15,27.82,13.91,50.06,1006.93,2032.06,2401.05,2230.12,2548.96,599.97,593.08,42.75,0000 0000 0000 0000 000000
2018-09-06 08:19:32,-0.00,3.38,0.00,21.71,25.16,27.84,13.89,50.14,1007.18,2032.05,2401.03,2230.06,2548.90,599.85,592.95,42.81,0000 0000 0000 0000 000000
2018-09-06 08:24:33,-0.00,3.38,0.00,21.76,25.17,27.85,13.85,50.14,1007.31,2032.02,2401.01,2230.09,2548.79,599.84,592.90,42.86,0000 0000 0000 0000 000000
2018-09-06 08:29:34,0.01,3.38,0.00,21.80,25.20,27.84,13.94,50.12,1007.34,2032.01,2401.00,2230.04,2548.48,600.16,593.09,42.91,0000 0000 0000 0000 000000
2018-09-06 08:34:36,0.00,3.38,0.00,21.83,25.21,27.88,13.92,50.00,1007.34,2032.01,2401.00,2230.00,2548.19,599.49,592.47,42.96,0000 0000 0000 0000 000000
2018-09-06 08:39:37,0.00,3.38,0.00,21.86,25.22,27.91,13.88,50.07,1007.35,2032.00,2401.00,2230.00,2548.03,599.77,592.61,43.01,0000 0000 0000 0000 000000
2018-09-06 08:44:38,0.00,3.38,0.00,21.88,25.24,27.96,13.86,50.10,1007.38,2032.00,2401.00,2230.00,2548.01,599.66,592.60,43.06,0000 0000 0000 0000 000000
2018-09-06 08:49:39,0.00,3.38,0.00,21.89,25.25,27.96,13.85,49.99,1007.48,2032.00,2401.00,2230.00,2548.00,599.90,592.81,43.11,0000 0000 0000 0000 000000
2018-09-06 08:54:40,0.00,3.38,0.00,21.89,25.27,27.98,13.87,49.98,1007.68,2032.00,2400.91,2229.99,2547.99,599.88,592.89,43.16,0000 0000 0000 0000 000000
2018-09-06 08:59:42,-0.00,3.38,0.00,21.87,25.29,28.01,13.91,50.03,1007.67,2032.00,2400.86,2229.98,2547.99,600.30,593.29,43.21,0000 0000 0000 0000 000000
2018-09-06 09:04:43,0.02,3.38,0.00,21.87,25.30,28.04,13.86,49.95,1007.71,2032.00,2400.35,2229.92,2547.98,599.83,592.94,43.26,0000 0000 0000 0000 000000
2018-09-06 09:09:44,0.01,3.39,0.00,21.88,25.32,28.05,13.90,49.96,1007.82,2032.00,2400.06,2229.69,2547.96,599.82,592.99,43.31,0000 0000 0000 0000 000000
2018-09-06 09:14:45,0.03,3.39,0.00,21.89,25.33,28.07,13.87,50.06,1007.83,2032.00,2400.01,2229.21,2547.48,599.75,592.84,43.36,0000 0000 0000 0000 000000
2018-09-06 09:19:46,-0.00,3.39,0.00,21.90,25.35,28.03,13.91,49.99,1007.84,2031.98,2400.01,2229.15,2547.21,600.30,593.30,43.41,0000 0000 0000 0000 000000
2018-09-06 09:24:47,0.01,3.39,0.00,21.92,25.36,28.02,13.87,49.92,1007.84,2031.94,2400.01,2229.06,2547.06,600.22,593.23,43.46,0000 0000 0000 0000 000000
2018-09-06 09:29:49,-0.03,3.39,0.00,21.93,25.37,28.06,13.88,49.88,1007.89,2031.68,2400.00,2229.01,2547.01,600.09,592.94,43.51,0000 0000 0000 0000 000000
2018-09-06 09:34:50,-0.02,3.38,0.00,21.96,25.40,28.09,13.91,49.92,1008.08,2031.28,2400.00,2229.00,2547.00,600.13,592.88,43.56,0000 0000 0000 0000 000000
2018-09-06 09:39:51,-0.02,3.38,0.00,21.97,25.41,28.08,13.95,49.92,1008.23,2031.11,2399.99,2229.00,2547.00,600.15,593.32,43.61,0000 0000 0000 0000 000000
2018-09-06 09:44:52,-0.01,3.38,0.00,21.98,25.42,28.12,13.96,49.88,1008.30,2031.04,2399.97,2229.00,2546.99,600.39,593.66,43.66,0000 0000 0000 0000 000000
2018-09-06 09:49:53,0.00,3.38,0.00,21.98,25.45,28.15,13.98,49.96,1008.31,2031.01,2399.90,2228.98,2546.92,600.09,593.41,43.72,0000 0000 0000 0000 000000
2018-09-06 09:54:54,0.03,3.38,0.00,21.97,25.45,28.17,13.96,50.07,1008.32,2031.00,2399.40,2228.91,2546.54,600.22,593.37,43.77,0000 0000 0000 0000 000000
2018-09-06 09:59:55,0.01,3.38,0.00,21.97,25.47,28.17,13.99,49.96,1008.34,2031.00,2399.21,2228.86,2546.34,599.99,593.17,43.82,0000 0000 0000 0000 000000
2018-09-06 10:04:56,0.01,3.39,0.00,21.98,25.47,28.17,13.95,49.88,1008.35,2031.00,2399.12,2228.65,2546.13,600.23,593.47,43.87,0000 0000 0000 0000 000000
2018-09-06 10:09:57,0.01,3.39,0.00,21.99,25.50,28.19,13.84,49.88,1008.38,2031.00,2399.04,2228.44,2546.04,599.63,592.91,43.92,0000 0000 0000 0000 000000
2018-09-06 10:14:59,0.01,3.39,0.00,22.00,25.50,28.18,13.89,49.92,1008.43,2031.00,2399.01,2228.12,2546.01,599.81,592.99,43.97,0000 0000 0000 0000 000000
2018-09-06 10:20:00,0.00,3.39,0.00,22.02,25.51,28.17,13.94,49.87,1008.65,2030.99,2399.00,2228.04,2546.00,600.00,593.17,44.02,0000 0000 0000 0000 000000
2018-09-06 10:25:01,0.00,3.39,0.00,22.02,25.52,28.19,13.90,49.81,1008.79,2030.98,2399.00,2228.02,2546.00,600.01,593.49,44.07,0000 0000 0000 0000 000000
2018-09-06 10:30:03,0.00,3.39,0.00,22.02,25.53,28.24,13.84,49.83,1008.80,2030.98,2399.00,2228.01,2546.00,599.76,593.21,44.12,0000 0000 0000 0000 000000
2018-09-06 10:35:04,-0.01,3.39,0.00,22.01,25.55,28.25,13.89,49.79,1008.80,2030.92,2399.00,2228.00,2546.00,600.21,593.56,44.17,0000 0000 0000 0000 000000
2018-09-06 10:40:05,0.03,3.39,0.00,22.00,25.55,28.27,13.93,49.82,1008.81,2030.86,2398.43,2227.96,2545.51,600.10,593.33,44.22,0000 0000 0000 0000 000000
2018-09-06 10:45:06,0.03,3.39,0.00,21.99,25.55,28.34,13.84,49.74,1008.81,2030.69,2397.96,2227.20,2545.01,599.55,593.04,44.27,0000 0000 0000 0000 000000
2018-09-06 10:50:07,-0.02,3.39,0.00,21.97,25.56,28.38,13.87,49.76,1008.86,2030.36,2397.53,2227.01,2544.96,599.78,593.18,44.32,0000 0000 0000 0000 000000
2018-09-06 10:55:08,0.01,3.39,0.00,21.96,25.57,28.49,13.92,49.77,1009.13,2030.17,2397.04,2227.00,2544.42,599.68,593.38,44.37,0000 0000 0000 0000 000000
2018-09-06 11:00:10,0.01,3.39,0.00,21.94,25.57,28.55,13.95,49.89,1009.25,2030.09,2396.99,2226.96,2544.01,599.86,593.74,44.42,0000 0000 0000 0000 000000
2018-09-06 11:05:11,0.04,3.39,0.00,21.92,25.57,28.57,13.93,49.92,1009.26,2030.26,2396.96,2226.73,2544.00,599.60,593.55,44.47,0000 0000 0000 0000 000000
2018-09-06 11:10:12,0.02,3.39,0.00,21.90,25.56,28.60,14.00,49.85,1009.25,2030.24,2396.59,2226.14,2543.99,600.41,594.30,44.52,0000 0000 0000 0000 000000
2018-09-06 11:15:14,0.00,3.39,0.00,21.89,25.55,28.62,14.04,49.80,1009.19,2030.13,2396.12,2226.03,2543.98,600.26,594.08,44.57,0000 0000 0000 0000 000000
2018-09-06 11:20:15,0.00,3.39,0.00,21.87,25.55,28.65,13.86,49.92,1009.28,2030.18,2396.05,2226.02,2543.97,599.36,593.45,44.62,0000 0000 0000 0000 000000
2018-09-06 11:25:17,0.01,3.39,0.00,21.85,25.55,28.62,13.95,49.93,1009.29,2030.29,2396.06,2226.03,2543.98,599.62,593.70,44.67,0000 0000 0000 0000 000000
2018-09-06 11:30:18,0.01,3.39,0.00,21.84,25.54,28.61,13.94,49.84,1009.29,2030.46,2396.06,2226.04,2543.98,600.09,594.21,44.73,0000 0000 0000 0000 000000
2018-09-06 11:35:19,0.01,3.40,0.00,21.81,25.53,28.62,14.00,49.83,1009.29,2030.59,2396.04,2226.02,2543.96,600.25,594.39,44.78,0000 0000 0000 0000 000000
2018-09-06 11:40:21,0.01,3.40,0.00,21.80,25.52,28.61,13.96,49.85,1009.29,2030.54,2396.00,2226.00,2543.89,599.98,594.15,44.83,0000 0000 0000 0000 000000
2018-09-06 11:45:22,0.02,3.40,0.00,21.78,25.52,28.59,13.96,49.87,1009.30,2030.69,2396.00,2226.01,2543.89,600.11,594.34,44.88,0000 0000 0000 0000 000000
2018-09-06 11:50:23,0.00,3.40,0.00,21.75,25.50,28.59,13.94,49.86,1009.30,2030.75,2396.00,2226.00,2543.81,599.92,594.04,44.93,0000 0000 0000 0000 000000
2018-09-06 11:55:25,0.01,3.40,0.00,21.74,25.50,28.55,13.89,49.78,1009.31,2030.87,2396.00,2226.00,2543.82,599.72,593.85,44.98,0000 0000 0000 0000 000000
2018-09-06 12:00:26,0.00,3.40,0.00,21.73,25.48,28.54,13.93,49.78,1009.32,2030.93,2396.00,2226.02,2543.87,599.96,594.31,45.03,0000 0000 0000 0000 000000
2018-09-06 12:05:27,0.01,3.40,0.00,21.71,25.47,28.58,13.91,49.84,1009.37,2030.94,2396.00,2226.00,2543.69,599.58,593.95,45.08,0000 0000 0000 0000 000000
2018-09-06 12:10:28,0.01,3.40,0.00,21.69,25.46,28.56,13.93,49.81,1009.34,2030.95,2396.00,2226.00,2543.52,599.88,594.29,45.13,0000 0000 0000 0000 000000
2018-09-06 12:15:29,0.01,3.40,0.00,21.68,25.45,28.53,14.01,49.81,1009.33,2030.98,2396.00,2226.00,2543.44,600.01,594.45,45.18,0000 0000 0000 0000 000000
2018-09-06 12:20:30,0.00,3.40,0.00,21.65,25.44,28.55,13.96,49.89,1009.31,2030.98,2395.99,2226.00,2543.13,600.29,594.64,45.23,0000 0000 0000 0000 000000
2018-09-06 12:25:32,-0.00,3.40,0.00,21.63,25.42,28.53,14.01,49.89,1009.32,2030.99,2395.99,2226.00,2543.23,600.24,594.86,45.28,0000 0000 0000 0000 000000
2018-09-06 12:30:33,0.00,3.40,0.00,21.61,25.41,28.52,14.01,49.84,1009.32,2030.99,2395.98,2226.00,2543.15,600.38,594.85,45.33,0000 0000 0000 0000 000000
2018-09-06 12:35:34,-0.00,3.40,0.00,21.60,25.40,28.53,14.07,49.88,1009.33,2030.99,2395.98,2226.00,2543.18,600.49,595.04,45.38,0000 0000 0000 0000 000000
2018-09-06 12:40:36,-0.01,3.40,0.00,21.58,25.39,28.51,14.01,49.81,1009.35,2030.99,2395.99,2226.01,2543.38,600.20,594.83,45.43,0000 0000 0000 0000 000000
2018-09-06 12:45:37,-0.00,3.40,0.00,21.55,25.37,28.42,13.96,49.89,1009.36,2030.99,2395.99,2226.01,2543.46,599.75,594.46,45.48,0000 0000 0000 0000 000000
2018-09-06 12:50:38,0.00,3.40,0.00,21.53,25.35,28.45,13.96,49.79,1009.41,2030.99,2395.99,2226.02,2543.41,599.77,594.41,45.53,0000 0000 0000 0000 000000